{"data":{"norad_id":55657,"epoch":"2026-05-24T22:48:22.561632Z","epoch_age_seconds":76461,"freshness":"FRESH","line1":"1 55657U 23021AF  26144.95026113 -.00003955  00000+0 -32371-3 0  9992","line2":"2 55657  69.9990 332.3359 0002877 266.9882  93.0948 14.98342855180703","mean_motion":14.98342855,"eccentricity":0.0002877,"inclination_deg":69.999,"raan_deg":332.3359,"arg_perigee_deg":266.9882,"mean_anomaly_deg":93.0948,"bstar":-0.00032371,"rev_number":18070,"period_min":96.10617457778,"perigee_km":570.01657914369,"apogee_km":574.01569725941,"semimajor_km":6950.1531382015,"source":"CELESTRAK","updated_at":"2026-05-25T13:38:17.872816Z"}}